Location: Arbon
(43.0005°N, 0.7472°E)
Time: 15:41:18
(UTC+00:00)

Explorer 7 - All Passes

Search period start: 26 November 2020 00:00
Search period end: 06 December 2020 00:00
Orbit: 484 x 678 km, 50.3° (Epoch: 25 November)

Date Brightness Start Highest point End Pass type
(mag) Time Alt. Az. Time Alt. Az. Time Alt. Az.
26 Nov - 01:03:50 10° SSE 01:05:46 13° SE 01:07:41 10° ESE night (unlit)
26 Nov - 02:41:15 10° SW 02:45:45 64° SE 02:49:59 10° ENE visible
26 Nov - 04:22:19 10° W 04:26:28 39° NNW 04:30:21 10° NE visible
26 Nov - 06:04:00 10° WNW 06:07:41 29° N 06:11:12 10° ENE visible
26 Nov - 07:44:46 10° NW 07:48:45 57° NNE 07:52:32 10° ESE daylight
26 Nov - 09:25:40 10° WNW 09:29:01 28° SW 09:32:16 10° SSE daylight
27 Nov - 01:06:48 10° S 01:10:11 20° SE 01:13:28 10° E night (unlit)
27 Nov - 02:45:49 10° WSW 02:50:22 87° NNW 02:54:40 10° ENE visible
27 Nov - 04:27:17 10° WNW 04:31:17 33° NNW 04:35:03 10° NE visible
27 Nov - 06:08:46 10° NW 06:12:33 32° N 06:16:07 10° ENE visible
27 Nov - 07:49:25 10° WNW 07:53:27 83° NNE 07:57:17 10° ESE daylight
27 Nov - 09:30:52 10° W 09:33:27 17° SW 09:35:58 10° S daylight
28 Nov - 01:10:33 10° SSW 01:14:40 31° SE 01:18:35 10° ENE night (unlit)
28 Nov - 02:50:33 10° WSW 02:55:04 63° NNW 02:59:18 10° ENE visible
28 Nov - 04:32:14 10° WNW 04:36:07 30° N 04:39:48 10° ENE visible
28 Nov - 06:13:28 10° NW 06:17:23 37° NNE 06:21:03 10° E visible
28 Nov - 07:54:05 10° WNW 07:58:04 65° SW 08:01:51 10° SE daylight
29 Nov - 01:14:42 10° SW 01:19:11 48° SE 01:23:26 10° ENE night (unlit)
29 Nov - 02:55:24 10° W 02:59:47 47° NNW 03:03:55 10° NE visible
29 Nov - 04:37:08 10° WNW 04:40:58 29° N 04:44:37 10° ENE visible
29 Nov - 06:18:07 10° NW 06:22:09 46° NNE 06:25:58 10° E visible
29 Nov - 07:58:51 10° WNW 08:02:37 40° SW 08:06:13 10° SSE daylight
29 Nov - 23:41:03 10° SSE 23:43:43 15° SE 23:46:20 10° E night (unlit)
30 Nov - 01:19:06 10° SW 01:23:46 72° SSE 01:28:10 10° ENE night (unlit)
30 Nov - 03:00:19 10° W 03:04:34 38° NNW 03:08:34 10° NE visible
30 Nov - 04:41:58 10° WNW 04:45:50 30° N 04:49:29 10° ENE visible
30 Nov - 06:22:45 10° WNW 06:26:54 64° NNE 06:30:47 10° ESE visible
30 Nov - 08:03:48 10° W 08:07:05 25° SW 08:10:15 10° SSE daylight
30 Nov - 23:44:22 10° S 23:48:08 24° SE 23:51:47 10° E night (unlit)
01 Dec - 01:23:43 10° WSW 01:28:24 80° NNW 01:32:49 10° ENE night (unlit)
01 Dec - 03:05:16 10° WNW 03:09:23 33° N 03:13:16 10° NE visible
01 Dec - 04:46:43 10° NW 04:50:41 34° N 04:54:25 10° ENE visible
01 Dec - 06:27:23 10° WNW 06:31:34 88° SSW 06:35:28 10° ESE visible
01 Dec - 08:09:07 10° W 08:11:29 15° SW 08:13:47 10° SSW daylight
01 Dec - 23:48:15 10° SSW 23:52:37 36° SE 23:56:47 10° ENE night (unlit)
02 Dec - 01:28:28 10° WSW 01:33:05 59° NNW 01:37:26 10° NE night (unlit)
02 Dec - 03:10:12 10° WNW 03:14:13 31° N 03:18:01 10° ENE visible
02 Dec - 04:51:24 10° NW 04:55:29 40° NNE 04:59:20 10° E visible
02 Dec - 06:32:04 10° WNW 06:36:09 57° SW 06:39:59 10° SE visible
02 Dec - 22:16:10 10° SE 22:17:15 11° SE 22:18:21 10° ESE night (unlit)
02 Dec - 23:52:28 10° SW 23:57:08 55° SE 00:01:35 10° ENE night (unlit)
03 Dec - 01:33:20 10° W 01:37:49 45° NNW 01:42:04 10° NE night (unlit)
03 Dec - 03:15:05 10° WNW 03:19:05 31° N 03:22:51 10° ENE visible
03 Dec - 04:56:02 10° NW 05:00:15 51° NNE 05:04:12 10° E visible
03 Dec - 06:36:52 10° WNW 06:40:40 36° SW 06:44:16 10° SSE visible
03 Dec - 22:18:26 10° S 22:21:37 18° SE 22:24:44 10° E night (unlit)
03 Dec - 23:56:56 10° SW 00:01:43 80° SSE 00:06:16 10° ENE night (unlit)
04 Dec - 01:38:15 10° W 01:42:36 38° NNW 01:46:44 10° NE night (unlit)
04 Dec - 03:19:53 10° WNW 03:23:56 32° N 03:27:45 10° ENE visible
04 Dec - 05:00:40 10° WNW 05:04:58 71° NNE 05:08:59 10° ESE visible
04 Dec - 06:41:51 10° W 06:45:06 22° SW 06:48:12 10° S visible
04 Dec - 22:21:58 10° SSW 22:26:02 27° SE 22:29:59 10° ENE night (unlit)
05 Dec - 00:01:35 10° WSW 00:06:22 74° NNW 00:10:55 10° ENE night (unlit)
05 Dec - 01:43:12 10° WNW 01:47:25 34° N 01:51:26 10° ENE night (unlit)
05 Dec - 03:24:36 10° NW 03:28:45 36° NNE 03:32:39 10° E visible
05 Dec - 05:05:18 10° WNW 05:09:36 80° SSW 05:13:37 10° SE visible
05 Dec - 06:47:20 10° W 06:49:27 14° SW 06:51:32 10° SSW daylight
05 Dec - 22:25:57 10° SSW 22:30:30 41° SE 22:34:54 10° ENE night (unlit)
